Regional Weather Roundup
Issued by NWS State College, PA

Home | Current Version | Previous Version | Text Only | Print | Product List | Glossary On
Versions: 1 2 3 4 5 6 7 8 9 10 11 12 13 14 15 16 17 18 19 20 21 22 23 24 25 26 27 28 29 30 31 32 33 34 35 36 37 38 39 40 41 42 43 44 45 46 47 48 49 50
000
ASUS41 KCTP 230910
RWRCTP

REGIONAL WEATHER ROUNDUP
NATIONAL WEATHER SERVICE STATE COLLEGE PA
500 AM EDT MON APR 23 2018

Note: "fair" indicates few or no clouds below 12,000 feet with no
significant weather and/or obstructions to visibility.

* = STATION THAT DOES NOT REPORT PRECIPITATION /E.G. RAIN...SNOW...ETC/
    THUNDER OR FOG.

PAZ002>004-007>009-013>016-020>023-029>032-231000-
WESTERN PENNSYLVANIA

CITY           SKY/WX    TMP DP  RH WIND       PRES   REMARKS
ERIE           FAIR      50  21  32 SE14      30.30S
MEADVILLE      FAIR      46  23  40 E9        30.31S
FRANKLIN*      FAIR      43  23  45 E8        30.32S
NEW CASTLE     FAIR      50  34  54 E8        30.28F
BEAVER COUNTY  NOT AVBL
BUTLER*        FAIR      48  34  58 E10       30.29F
PITTSBURGH INT FAIR      50  37  61 E9        30.26F
PITTSBURGH     FAIR      49  38  65 E7        30.27S
INDIANA*       MOCLDY    48  36  61 E5        30.35S
LATROBE        FAIR      54  37  54 E10       30.29S
WASHINGTON CO* NOT AVBL
$$

PAZ004>006-010>012-017>019-024>028-033>037-041-042-045-046-049>053-231000-
CENTRAL PENNSYLVANIA

CITY           SKY/WX    TMP DP  RH WIND       PRES   REMARKS
BRADFORD       FAIR      32  19  58 CALM      30.36S
DUBOIS         FAIR      43  20  39 E9        30.33F
CLEARFIELD     FAIR      37  21  52 N5        30.37S
JOHNSTOWN      FAIR      48  36  63 SE6       30.31F
ALTOONA        FAIR      48  34  58 E6        30.35F
STATE COLLEGE  FAIR      41  23  48 NE5       30.38S
WILLIAMSPORT   FAIR      35  26  69 CALM      30.42S
SELINSGROVE    FAIR      32  28  85 NW3       30.42S
FT INDIANTOWN  FAIR      37  37  99 CALM      30.41S
CAPITAL CITY   FAIR      41  34  76 CALM      30.41S
HARRISBURG     FAIR      40  33  76 SE3       30.40F
YORK           MOCLDY    36  34  92 CALM      30.40S
$$

PAZ038>040-043-044-047-048-054-055-060>062-067>071-231000-
EASTERN PENNSYLVANIA

CITY           SKY/WX    TMP DP  RH WIND       PRES   REMARKS
SCRANTON       FAIR      38  21  50 E6        30.41F
MOUNT POCONO   FAIR      30  21  69 CALM      30.40S
ALLENTOWN      FAIR      37  28  70 W3        30.42R
QUAKERTOWN*    SUNNY     34  30  86 CALM      30.42S
READING        FAIR      41  35  79 CALM      30.41S
LANCASTER      FAIR      37  33  85 E5        30.41S
COATESVILLE    FAIR      43  37  81 CALM      30.43R
POTTSTOWN      FAIR      38  31  76 CALM      30.43S
BLUE BELL      FAIR      39  34  81 CALM      30.43S
DOYLESTOWN     FAIR      41  32  70 CALM      30.41R
WILLOW GROVE   NOT AVBL
NORTH PHILA    FAIR      44  34  67 NE5       30.44R
PHILADELPHIA   FAIR      44  33  65 CALM      30.43S
$$



USA.gov is the U.S. government's official web portal to all federal, state and local government web resources and services.